HARMALA Weather Reports


time (UTC)temp
C
wind
direction
speed
KPH
gust
KPH
rain 1hr
cm
rain 24hr
cm
rain mn
cm
humidity
%
barometer
mb
20260506120722 10 0.0 0.0 0.00 0.00 0.00 25 1012.7
20260506114722 10 0.0 0.0 0.00 0.00 0.00 23 1012.7
20260506112722 10 0.0 0.0 0.00 0.00 0.00 24 1012.5
20260506110722 9 0.0 0.0 0.00 0.00 0.00 23 1012.5
20260506104723 9 0.0 0.0 0.00 0.00 0.00 23 1012.5
20260506102723 10 0.0 0.0 0.00 0.00 0.00 27 1012.2
20260506100723 9 0.0 0.0 0.00 0.00 0.00 29 1012.2
20260506094723 9 0.0 0.0 0.00 0.00 0.00 27 1012.0
20260506092723 9 0.0 0.0 0.00 0.00 0.00 26 1011.9
20260506090723 8 0.0 0.0 0.00 0.00 0.00 29 1011.9
20260506084723 8 0.0 0.0 0.00 0.00 0.00 31 1011.9
20260506082723 8 0.0 0.0 0.00 0.00 0.00 35 1011.7
20260506080722 7 0.0 0.0 0.00 0.00 0.00 34 1011.6
20260506072723 7 0.0 0.0 0.00 0.00 0.00 40 1011.3
20260506070723 6 0.0 0.0 0.00 0.00 0.00 44 1011.2
20260506060723 5 0.0 0.0 0.00 0.00 0.00 55 1010.8
20260506050722 4 0.0 0.0 0.00 0.00 0.00 68 1010.4
20260506044722 3 0.0 0.0 0.00 0.00 0.00 70 1010.2
20260506042722 3 0.0 0.0 0.00 0.00 0.00 72 1010.1
20260506040722 2 0.0 0.0 0.00 0.00 0.00 75 1009.9
20260506034723 1 0.0 0.0 0.00 0.10 0.00 86 1009.8
20260506032722 0 0.0 0.0 0.00 0.10 0.00 94 1009.6
20260506030722 -1 0.0 0.0 0.00 0.10 0.00 94 1009.4
20260506024722 -1 0.0 0.0 0.00 0.13 0.00 94 1009.1
20260506022722 -1 0.0 0.0 0.00 0.13 0.00 93 1008.9
20260506020722 0 0.0 0.0 0.00 0.13 0.00 91 1008.8
20260506014722 0 0.0 0.0 0.00 0.13 0.00 88 1008.6
20260506012721 0 0.0 0.0 0.00 0.13 0.00 88 1008.5
20260506010722 0 0.0 0.0 0.00 0.13 0.00 88 1008.3
20260506004721 0 0.0 0.0 0.00 0.13 0.00 86 1008.0
20260506002721 0 0.0 0.0 0.00 0.13 0.00 85 1007.9
20260506000721 0 0.0 0.0 0.00 0.13 0.00 85 1007.9
20260505234722 0 0.0 0.0 0.00 0.13 0.00 84 1007.7
20260505232722 0 0.0 0.0 0.00 0.13 0.00 84 1007.8
20260505230721 1 0.0 0.0 0.00 0.13 0.00 78 1007.7
20260505224721 1 0.0 0.0 0.00 0.13 0.00 77 1007.6
20260505222721 2 0.0 0.0 0.00 0.13 0.00 74 1007.5
20260505220721 2 0.0 0.0 0.00 0.13 0.00 71 1007.5
20260505214721 2 0.0 0.0 0.00 0.13 0.00 68 1007.4
20260505212721 3 0.0 0.0 0.00 0.13 0.00 66 1007.3
20260505210720 3 0.0 0.0 0.00 0.13 0.00 64 1007.1
20260505204721 3 0.0 0.0 0.00 0.18 0.13 61 1006.9
20260505202721 4 0.0 0.0 0.00 0.18 0.13 59 1006.7
20260505200720 4 0.0 0.0 0.00 0.18 0.13 58 1006.7
20260505194720 4 0.0 0.0 0.00 0.23 0.13 55 1006.6
20260505192721 5 0.0 0.0 0.00 0.23 0.13 53 1006.4
20260505190720 5 0.0 0.0 0.00 0.23 0.13 51 1006.2
20260505184720 5 0.0 0.0 0.00 0.23 0.13 49 1006.0
20260505182720 6 0.0 0.0 0.00 0.23 0.13 47 1005.7
20260505180720 6 0.0 0.0 0.00 0.23 0.13 46 1005.5
20260505174720 7 0.0 0.0 0.00 0.23 0.13 45 1005.3
20260505172719 7 0.0 0.0 0.00 0.23 0.13 46 1005.1
20260505170719 7 0.0 0.0 0.00 0.23 0.13 46 1005.1
20260505164720 8 0.0 0.0 0.00 0.23 0.13 43 1004.9
20260505162720 8 0.0 0.0 0.00 0.23 0.13 42 1004.7
20260505160720 8 0.0 0.0 0.00 0.23 0.13 40 1004.6
20260505152719 8 0.0 0.0 0.00 0.23 0.13 39 1004.4
20260505150719 8 0.0 0.0 0.00 0.23 0.13 38 1004.4
20260505124719 8 0.0 0.0 0.00 0.23 0.13 41 1003.7